Satellite: AAUSAT2
Catalog number: 32788
Epoch time:      09098.64846947
Element set:    0334
Inclination:      097.9492 deg
RA of node:       163.0893 deg
Eccentricity:    0.0013992
Arg of perigee:   258.7383 deg
Mean anomaly:     101.2246 deg
Mean motion:   14.81695300 rev/day
Decay rate:        9.3e-07 rev/day^2
Epoch rev:           05115
Checksum:              331

Satellite: DO-64
Catalog number: 32789
Epoch time:      09099.68193587
Element set:     336
Inclination:      097.9530 deg
RA of node:       164.2367 deg
Eccentricity:    0.0014525
Arg of perigee:   252.8154 deg
Mean anomaly:     107.1462 deg
Mean motion:   14.81659482 rev/day
Decay rate:       5.56e-06 rev/day^2
Epoch rev:            5130
Checksum:              335

Satellite: CO-66
Catalog number: 32791
Epoch time:      09098.43965020
Element set:    0322
Inclination:      097.9517 deg
RA of node:       162.8669 deg
Eccentricity:    0.0015054
Arg of perigee:   257.3880 deg
Mean anomaly:     102.5615 deg
Mean motion:   14.81409488 rev/day
Decay rate:        6.8e-07 rev/day^2
Epoch rev:           05108
Checksum:              326

Satellite: RS-30
Catalog number: 32953
Epoch time:      09098.64666522
Element set:    0277
Inclination:      082.4993 deg
RA of node:       299.8671 deg
Eccentricity:    0.0018890
Arg of perigee:   333.3497 deg
Mean anomaly:     026.6607 deg
Mean motion:   12.43000252 rev/day
Decay rate:        1.0e-07 rev/day^2
Epoch rev:           03975
Checksum:              321

/EX





More information about the Keps mailing list